Wind_Speed
51 54 57 61 63 64 65 65 64 64 63 62 61 58 56 54 52 51 50 49 47 46 45 43 41 40 38 37 35 34 33 32 31 30 29 28 28 28 28 28 29 29 29
48 52 55 58 61 64 64 64 64 64 64 62 60 58 56 55 53 51 50 49 48 47 45 44 42 40 39 38 36 35 33 32 31 31 30 29 29 29 29 29 30 30 31
45 50 53 56 58 61 64 64 64 64 63 62 61 59 57 55 54 52 50 49 48 47 46 44 42 41 39 38 36 36 34 33 32 32 31 30 29 29 29 30 31 32 32
42 47 52 55 56 59 62 63 63 64 63 62 60 59 58 55 53 52 50 49 48 47 46 44 43 41 39 38 36 35 35 34 33 32 31 31 30 30 30 31 32 32 33
40 45 50 54 55 57 59 61 64 64 63 62 60 60 58 55 53 53 52 49 48 47 46 45 43 41 40 38 37 36 35 34 33 32 32 31 31 31 31 32 33 33 33
38 43 48 53 54 56 58 59 62 64 63 63 61 60 59 57 54 52 52 50 48 47 45 44 43 41 40 39 37 36 35 34 33 33 32 32 32 32 32 32 33 34 34
37 43 47 51 54 55 57 57 59 62 63 63 61 61 60 57 55 52 51 50 48 46 44 43 43 42 41 40 38 37 36 35 34 33 33 33 33 33 33 33 34 34 35
37 42 45 49 54 55 55 57 59 60 62 62 60 60 60 58 54 52 51 50 48 47 45 43 42 42 42 41 39 38 36 36 35 35 34 33 34 33 34 34 35 35 35
35 40 44 48 52 55 54 55 57 58 61 62 61 60 59 58 55 52 51 50 49 48 45 43 43 42 42 41 40 38 37 37 36 36 35 35 35 34 34 35 35 36 36
33 38 43 47 51 53 53 54 56 58 59 61 61 60 59 58 55 51 50 50 50 48 46 44 44 43 42 41 40 40 38 37 37 36 36 35 35 35 35 36 36 36 37
32 36 42 46 49 52 52 54 55 57 59 61 62 60 59 57 54 52 51 50 49 49 47 46 45 43 42 41 40 40 39 38 37 36 36 35 35 36 36 36 36 37 38
32 35 40 44 47 50 51 52 54 57 60 61 61 61 59 58 55 52 50 51 50 49 48 47 46 45 43 42 41 40 39 38 37 36 36 36 36 36 36 36 36 37 38
31 35 40 44 45 47 48 50 52 54 57 60 61 61 60 59 56 53 51 51 51 49 49 48 46 44 42 42 41 40 39 38 37 36 36 36 36 35 36 37 37 38 38
30 34 39 44 45 45 47 47 50 53 54 57 60 60 60 59 57 54 52 50 50 50 49 48 46 44 42 41 41 40 39 38 37 37 35 35 35 36 36 37 38 38 38
29 33 38 43 45 46 46 46 48 52 54 55 56 57 58 59 59 56 53 51 50 50 49 47 46 44 42 40 39 39 38 38 37 36 35 35 35 36 37 37 37 38 38
28 32 36 41 44 45 46 46 48 51 53 53 53 53 54 56 57 56 55 52 50 49 49 48 46 44 42 40 38 37 37 37 36 35 35 36 37 36 36 37 37 38 38
27 31 35 38 41 43 45 47 48 49 50 52 53 53 54 54 56 56 54 51 50 50 49 47 46 44 41 40 39 36 36 36 35 35 36 36 36 36 36 36 37 37 37
26 29 34 38 39 41 44 46 48 49 49 51 54 54 53 53 53 54 53 51 50 50 48 46 45 44 42 40 39 38 37 36 36 36 36 36 36 35 36 36 36 36 36
27 29 32 36 39 40 43 44 46 48 49 50 52 53 52 52 52 53 52 52 50 49 47 46 45 44 42 41 39 38 37 37 36 36 36 36 35 34 35 35 35 35 36
28 30 32 34 38 40 42 44 45 46 48 49 49 51 51 51 51 51 49 48 48 47 46 44 43 43 42 41 40 39 38 37 36 36 35 34 34 34 34 34 35 36 36
27 29 31 34 37 39 40 42 45 45 45 47 48 48 47 47 48 49 48 46 46 46 46 45 43 42 41 41 40 39 38 37 36 36 35 34 34 34 33 34 35 35 35
27 29 30 33 36 38 39 41 44 45 45 45 46 46 45 46 46 47 47 45 43 43 43 43 43 42 41 39 39 39 38 37 36 34 33 34 34 33 33 33 34 34 35
27 29 30 32 36 38 40 42 42 44 45 44 45 46 46 46 45 46 46 45 42 40 40 41 42 41 39 38 38 37 37 35 34 33 33 33 33 32 32 33 33 33 34
27 29 30 32 35 38 40 42 43 42 43 44 45 45 46 45 45 45 45 43 41 39 38 38 38 39 38 38 38 37 36 34 33 33 33 32 32 32 32 32 32 33 33
26 27 30 32 34 37 39 42 43 43 43 44 44 45 45 45 44 44 44 42 41 40 38 37 36 36 36 36 37 36 35 33 33 32 31 30 30 31 31 32 31 31 31
26 27 29 31 33 37 38 41 43 43 43 43 43 43 44 44 44 44 43 42 40 39 39 38 37 37 37 37 37 35 35 33 31 30 29 29 29 29 30 30 30 30 31
Wind_Direction
226 223 221 218 216 216 215 214 214 214 215 216 216 218 219 220 221 222 223 224 225 226 228 229 231 234 235 236 238 240 243 245 248 251 254 258 265 269 273 276 279 283 287
227 223 220 217 216 216 214 213 213 213 214 215 216 217 218 219 221 222 222 223 224 226 227 229 231 233 234 236 238 240 242 244 248 250 254 259 264 269 273 277 280 284 287
226 223 219 214 214 214 213 212 212 212 213 215 215 216 216 218 220 221 222 223 224 226 227 229 231 233 234 236 238 240 241 243 247 250 254 260 265 270 273 277 281 284 287
225 221 216 212 211 212 212 212 211 211 212 214 215 216 216 217 219 221 222 223 224 226 227 229 231 233 233 236 238 239 241 244 248 251 255 260 265 270 273 277 281 285 287
223 219 214 211 210 210 211 211 210 211 212 213 214 215 215 217 219 220 222 224 225 225 227 229 230 232 233 235 236 239 242 244 248 251 255 259 265 270 273 277 281 284 288
222 218 214 211 209 209 209 210 211 211 211 213 214 215 216 218 219 220 222 223 224 226 228 229 230 231 232 234 236 239 242 244 247 252 255 260 265 269 273 277 281 285 288
220 216 213 211 210 209 209 210 210 211 212 213 214 215 216 217 219 220 221 222 223 225 227 229 230 231 232 234 236 239 242 244 248 252 256 261 266 270 273 278 282 285 287
221 216 214 211 210 209 209 210 209 211 212 212 213 214 216 217 218 219 220 221 223 224 226 228 229 230 232 234 236 239 242 245 249 253 257 262 266 270 274 279 282 285 287
222 217 215 212 212 210 209 210 210 210 212 213 213 214 216 217 218 219 220 221 222 224 226 228 228 230 232 234 236 240 243 246 250 254 258 262 266 270 275 279 282 285 287
225 220 216 213 212 212 210 210 211 211 212 213 214 216 217 218 219 219 220 221 223 224 226 228 229 231 233 235 238 240 244 247 251 255 259 263 267 271 275 279 282 284 287
226 221 217 215 215 213 211 212 212 213 213 214 215 215 215 217 218 220 221 222 223 224 227 228 230 232 234 237 239 242 245 248 251 255 260 264 268 272 275 279 282 284 286
226 221 218 216 217 216 214 213 213 213 213 214 215 215 215 216 217 219 221 222 222 224 226 229 231 233 235 238 241 243 246 249 252 256 260 264 268 272 275 279 283 285 288
227 222 218 218 218 218 217 215 215 213 213 213 214 216 215 216 217 219 221 222 224 225 227 229 231 233 236 239 241 244 246 249 252 256 261 266 269 273 276 280 284 286 289
228 223 220 218 218 219 218 216 216 215 213 214 215 216 216 216 217 219 221 223 225 226 227 229 232 234 236 239 242 245 247 249 253 257 262 266 270 273 277 282 284 286 288
231 225 221 220 219 219 218 216 216 215 214 215 216 217 218 218 217 219 222 224 226 226 227 229 232 234 237 239 242 245 247 250 253 258 263 267 271 276 279 283 284 286 289
232 228 222 220 220 220 219 219 217 215 215 215 216 217 217 218 218 219 222 224 226 227 229 230 233 235 238 239 241 246 248 251 254 259 263 267 272 276 280 283 285 287 289
232 230 225 220 220 220 219 219 218 216 215 215 216 216 217 217 219 220 222 225 227 228 231 232 235 237 238 239 241 245 248 251 254 259 263 268 272 276 280 282 286 289 291
232 229 225 220 219 220 220 219 218 216 216 216 216 215 216 217 218 220 221 223 226 229 231 233 235 236 238 239 242 245 248 251 254 259 264 268 272 275 279 283 286 289 292
234 230 227 222 218 218 219 219 219 219 218 217 217 217 217 217 218 219 221 223 225 228 230 232 233 235 237 240 243 246 249 252 255 260 265 269 271 276 279 283 286 289 292
235 232 229 224 220 218 217 217 217 218 218 218 218 218 218 218 218 219 221 223 224 227 228 230 231 233 236 240 243 246 250 253 257 261 266 268 271 276 280 283 287 290 294
235 233 231 226 221 219 218 217 217 216 217 218 218 217 218 218 219 220 221 223 225 227 229 230 232 234 237 241 244 248 251 254 257 261 265 269 272 276 281 285 289 292 294
239 235 232 227 223 221 217 215 216 216 217 218 218 217 217 217 218 220 221 223 225 227 228 230 233 236 239 242 246 247 250 254 257 261 265 270 273 277 281 286 291 293 295
241 237 233 227 223 220 218 215 214 215 217 217 217 217 217 218 218 219 221 223 225 227 228 231 234 236 238 241 245 246 249 253 256 260 265 269 272 277 282 286 290 293 295
242 238 233 227 222 219 218 216 215 215 216 217 216 215 215 216 217 219 220 222 224 226 228 231 234 235 237 241 244 246 250 254 258 261 263 267 272 277 282 286 289 293 295
239 236 231 225 221 218 216 217 215 214 215 215 214 213 213 215 216 218 220 222 224 228 229 230 232 233 238 241 244 247 250 255 258 259 261 267 272 277 282 287 290 292 295
238 233 229 225 221 217 215 215 213 212 213 214 213 211 212 215 216 217 219 221 223 225 226 229 231 234 236 238 241 245 249 252 255 258 262 266 272 277 283 287 290 293 295
Height
5588 5594 5603 5613 5624 5636 5647 5658 5669 5679 5689 5698 5707 5715 5723 5730 5737 5743 5750 5755 5761 5766 5771 5776 5780 5784 5788 5791 5794 5796 5799 5801 5802 5804 5805 5806 5806 5806 5805 5804 5803 5802 5800
5576 5584 5592 5602 5613 5624 5636 5647 5658 5668 5678 5689 5698 5706 5715 5722 5729 5735 5741 5747 5753 5759 5764 5769 5773 5777 5781 5784 5787 5790 5792 5795 5796 5798 5799 5800 5801 5800 5799 5798 5797 5796 5794
5567 5574 5582 5592 5602 5614 5625 5637 5648 5658 5669 5678 5687 5696 5704 5711 5718 5726 5733 5740 5746 5751 5756 5761 5766 5770 5774 5777 5780 5783 5786 5788 5790 5791 5793 5794 5794 5794 5793 5792 5791 5789 5788
5559 5565 5573 5583 5593 5604 5615 5626 5638 5649 5658 5668 5677 5686 5696 5704 5711 5719 5725 5732 5738 5743 5749 5754 5759 5763 5767 5770 5773 5776 5779 5781 5783 5785 5786 5787 5788 5788 5787 5786 5785 5783 5781
5551 5558 5566 5575 5585 5595 5605 5616 5627 5638 5648 5659 5668 5678 5687 5695 5702 5709 5716 5723 5729 5735 5741 5746 5751 5755 5760 5763 5767 5769 5772 5775 5777 5778 5779 5780 5781 5780 5780 5779 5778 5776 5774
5545 5552 5559 5567 5577 5587 5597 5607 5618 5629 5640 5650 5660 5669 5678 5686 5693 5700 5708 5715 5721 5727 5733 5739 5744 5748 5752 5756 5759 5762 5765 5768 5770 5771 5773 5774 5774 5774 5773 5772 5771 5769 5767
5539 5545 5552 5561 5570 5580 5590 5600 5610 5620 5631 5641 5651 5660 5669 5677 5685 5692 5699 5707 5713 5720 5726 5731 5736 5741 5745 5749 5752 5755 5758 5761 5763 5764 5766 5767 5767 5767 5766 5765 5764 5762 5760
5534 5540 5547 5555 5563 5573 5582 5592 5601 5611 5622 5632 5641 5650 5659 5668 5676 5684 5691 5699 5706 5712 5718 5724 5728 5733 5737 5741 5745 5748 5751 5753 5756 5757 5759 5759 5760 5760 5759 5758 5757 5755 5753
5529 5534 5541 5549 5557 5566 5575 5584 5593 5603 5613 5623 5632 5641 5650 5659 5668 5676 5683 5690 5697 5704 5710 5716 5721 5725 5729 5733 5737 5741 5743 5746 5748 5750 5751 5752 5752 5752 5752 5751 5749 5748 5745
5524 5529 5535 5542 5550 5559 5568 5576 5585 5594 5604 5614 5624 5632 5642 5651 5660 5667 5675 5682 5689 5696 5702 5708 5713 5717 5722 5726 5729 5733 5736 5739 5741 5743 5744 5745 5745 5745 5744 5743 5742 5739 5737
5518 5523 5529 5536 5543 5551 5560 5568 5577 5586 5596 5606 5615 5624 5633 5642 5651 5659 5667 5674 5680 5687 5694 5700 5705 5709 5714 5718 5722 5726 5729 5731 5733 5735 5737 5737 5737 5737 5737 5735 5734 5732 5729
5513 5518 5523 5530 5536 5544 5552 5561 5569 5578 5587 5597 5606 5615 5624 5634 5642 5651 5658 5666 5672 5679 5686 5691 5696 5702 5706 5711 5715 5718 5721 5724 5726 5728 5729 5730 5730 5730 5729 5728 5726 5724 5721
5507 5511 5517 5523 5529 5537 5545 5553 5561 5569 5578 5587 5597 5606 5615 5625 5634 5642 5650 5657 5664 5671 5677 5683 5688 5694 5699 5703 5707 5710 5714 5716 5718 5720 5721 5722 5722 5722 5721 5720 5718 5716 5713
5501 5505 5510 5516 5523 5530 5538 5545 5553 5560 5570 5579 5588 5597 5607 5616 5626 5634 5642 5649 5656 5662 5669 5675 5680 5686 5691 5695 5699 5703 5706 5709 5711 5712 5714 5714 5714 5714 5713 5712 5710 5708 5705
5495 5499 5504 5510 5516 5523 5530 5538 5545 5553 5561 5570 5579 5589 5598 5608 5616 5625 5633 5640 5648 5655 5661 5667 5672 5678 5683 5688 5692 5695 5698 5701 5703 5705 5706 5707 5707 5706 5705 5704 5702 5700 5697
5489 5492 5497 5502 5509 5515 5522 5530 5537 5545 5553 5563 5572 5581 5590 5599 5607 5616 5624 5632 5639 5646 5653 5659 5665 5670 5676 5681 5684 5688 5691 5693 5695 5697 5698 5699 5699 5698 5697 5696 5694 5692 5689
5483 5486 5490 5495 5501 5508 5515 5522 5530 5538 5546 5555 5564 5573 5581 5590 5599 5608 5616 5624 5631 5638 5645 5652 5657 5663 5668 5673 5677 5680 5683 5685 5688 5689 5690 5691 5691 5690 5689 5688 5686 5684 5681
5476 5479 5483 5488 5494 5500 5507 5515 5522 5530 5538 5547 5556 5565 5573 5582 5590 5599 5608 5615 5623 5630 5637 5644 5650 5655 5660 5665 5669 5672 5675 5677 5680 5681 5682 5683 5683 5682 5682 5680 5678 5676 5673
5470 5473 5476 5481 5486 5493 5500 5507 5514 5522 5531 5539 5548 5557 5565 5573 5582 5591 5599 5607 5614 5622 5629 5635 5641 5647 5652 5657 5661 5664 5667 5669 5672 5673 5674 5675 5675 5675 5674 5672 5670 5668 5665
5462 5465 5469 5474 5479 5485 5492 5499 5506 5514 5523 5532 5540 5548 5557 5565 5574 5583 5591 5598 5606 5613 5620 5627 5633 5639 5644 5649 5652 5656 5659 5662 5664 5665 5666 5667 5667 5667 5665 5664 5662 5660 5656
5455 5459 5462 5467 5472 5478 5484 5491 5499 5507 5515 5524 5532 5541 5549 5557 5566 5574 5582 5590 5598 5605 5612 5619 5625 5630 5635 5640 5644 5648 5651 5654 5656 5657 5659 5659 5659 5659 5657 5656 5654 5651 5648
5448 5451 5455 5460 5465 5470 5476 5484 5491 5500 5508 5516 5525 5533 5542 5550 5558 5566 5574 5582 5589 5597 5603 5610 5616 5622 5627 5632 5636 5640 5643 5646 5648 5650 5651 5651 5651 5650 5649 5648 5646 5643 5640
5441 5444 5448 5452 5457 5463 5469 5477 5484 5492 5500 5508 5516 5525 5534 5542 5550 5558 5566 5574 5581 5588 5595 5602 5608 5614 5619 5624 5628 5631 5634 5637 5640 5641 5642 5643 5643 5642 5641 5639 5637 5635 5632
5433 5436 5440 5445 5450 5455 5462 5469 5476 5484 5492 5500 5509 5517 5526 5534 5543 5551 5558 5566 5574 5581 5588 5594 5600 5606 5611 5616 5620 5623 5626 5629 5631 5633 5634 5635 5634 5634 5633 5632 5629 5627 5624
5426 5428 5432 5436 5442 5447 5454 5461 5468 5476 5485 5493 5501 5509 5518 5526 5535 5543 5551 5559 5567 5574 5581 5587 5593 5598 5604 5609 5613 5616 5619 5622 5624 5625 5626 5627 5627 5627 5626 5624 5622 5619 5616
5418 5421 5425 5429 5434 5440 5446 5453 5460 5469 5477 5486 5494 5502 5510 5519 5527 5535 5544 5551 5559 5566 5573 5579 5585 5591 5596 5600 5604 5607 5611 5614 5616 5618 5619 5620 5620 5619 5618 5617 5614 5612 5609